TimeAKST,TemperatureF,Dew PointF,Humidity,Sea Level PressureIn,VisibilityMPH,Wind Direction,Wind SpeedMPH,Gust SpeedMPH,PrecipitationIn,Events,Conditions,WindDirDegrees,DateUTC
12:53 AM,30.0,25.0,82,29.36,10.0,North,4.6,-,N/A,,Overcast,350,2013-02-03 09:53:00
1:53 AM,30.9,25.0,79,29.35,10.0,North,3.5,-,N/A,,Overcast,350,2013-02-03 10:53:00
2:53 AM,30.9,24.1,76,29.32,10.0,Calm,Calm,-,N/A,,Overcast,0,2013-02-03 11:53:00
3:53 AM,30.9,24.1,76,29.31,10.0,NW,4.6,-,N/A,,Overcast,320,2013-02-03 12:53:00
4:53 AM,28.9,24.1,82,29.29,10.0,Calm,Calm,-,N/A,,Overcast,0,2013-02-03 13:53:00
5:53 AM,28.0,23.0,81,29.27,10.0,Calm,Calm,-,N/A,,Overcast,0,2013-02-03 14:53:00
6:53 AM,28.9,25.0,85,29.27,10.0,Calm,Calm,-,N/A,,Overcast,0,2013-02-03 15:53:00
7:53 AM,30.9,25.0,79,29.27,10.0,Calm,Calm,-,N/A,,Overcast,0,2013-02-03 16:53:00
8:53 AM,30.0,25.0,82,29.27,10.0,Calm,Calm,-,N/A,,Overcast,0,2013-02-03 17:53:00
9:53 AM,32.0,25.0,75,29.28,10.0,Calm,Calm,-,N/A,,Overcast,0,2013-02-03 18:53:00
10:53 AM,33.1,26.1,75,29.28,10.0,Calm,Calm,-,N/A,,Overcast,0,2013-02-03 19:53:00
11:53 AM,30.9,25.0,79,29.29,10.0,SSE,3.5,-,N/A,,Overcast,150,2013-02-03 20:53:00
12:53 PM,33.1,25.0,72,29.30,10.0,East,3.5,-,N/A,,Overcast,100,2013-02-03 21:53:00
1:53 PM,34.0,26.1,73,29.30,10.0,Calm,Calm,-,0.00,,Overcast,0,2013-02-03 22:53:00
2:53 PM,34.0,27.0,75,29.31,10.0,Calm,Calm,-,0.00,Rain-Snow,Light Rain,0,2013-02-03 23:53:00
3:53 PM,34.0,27.0,75,29.33,10.0,East,5.8,-,0.00,Rain-Snow,Light Rain,90,2013-02-04 00:53:00
4:53 PM,35.1,30.9,85,29.34,10.0,SE,5.8,-,0.01,Rain,Light Rain,130,2013-02-04 01:53:00
5:53 PM,36.0,33.1,89,29.36,10.0,SSE,9.2,-,0.01,Rain,Light Rain,160,2013-02-04 02:53:00
6:20 PM,35.6,33.8,93,29.36,10.0,SSE,8.1,-,0.01,Rain-Snow,Light Rain,160,2013-02-04 03:20:00
6:38 PM,35.6,33.8,93,29.36,10.0,SSE,5.8,-,0.01,Rain-Snow,Light Rain,160,2013-02-04 03:38:00
6:53 PM,36.0,33.1,89,29.37,10.0,SSE,5.8,-,0.01,Rain-Snow,Light Rain,150,2013-02-04 03:53:00
7:53 PM,34.0,30.9,89,29.39,10.0,NE,6.9,-,0.01,Rain-Snow,Light Rain,50,2013-02-04 04:53:00
8:53 PM,34.0,30.9,89,29.41,10.0,East,4.6,-,0.00,Rain-Snow,Light Rain,100,2013-02-04 05:53:00
9:53 PM,36.0,30.9,82,29.43,10.0,Calm,Calm,-,0.00,,Overcast,0,2013-02-04 06:53:00
10:45 PM,33.8,30.2,87,29.45,10.0,East,3.5,-,N/A,,Overcast,90,2013-02-04 07:45:00
10:53 PM,33.1,30.0,89,29.46,10.0,Variable,3.5,-,N/A,,Overcast,0,2013-02-04 07:53:00
11:53 PM,32.0,28.9,88,29.47,10.0,ENE,4.6,-,N/A,,Mostly Cloudy,70,2013-02-04 08:53:00